SCP
0 0 0 0 0 0 0 0 0 0 0 0 0 0 0 0 0 0 0 0 0 0 0 0 0 0 0 0 0 0 0 0 0 0 0 0 0 0 0 0 0 0 0
0 0 0 0 0 0 0 0 0 0 0 0 0 0 0 0 0 0 0 0 0 0 0 0 0 0 0 0 0 0 0 0 0 0 0 0 0 0 0 0 0 0 0
0 0 0 0 0 0 0 0 0 0 0 0 0 0 0 0 0 0 0 0 0 0 0 0 0 0 0 0 0 0 0 0 0 0 0 0 0 0 0 0 0 0 0
0 0 0 0 0 0 0 0 0 0 0 0 0 0 0 0 0 0 0 0 0 0 0 0 0 0 0 0 0 0 0 0 0 0 0 0 0 0 0 0 0 0 0
0 0 0 0 0 0 0 0 0 0 0 0 0 0 0 0 0 0 0 0 0 0 0 0 0 0 0 0 0 0 0 0 0 0 0 0 0 0 0 0 0 0 0
0 0 0 0 0 0 0 0 0 0 0 0 0 0 0 0 0 0 0 0 0 0 0 0 0 0 0 0 0 0 0 0 0 0 0 0 0 0 0 0 0 0 0
0 0 0 0 0 0 0 0 0 0 0 0 0 0 0 0 0 0 0 0 0 0 0 0 0 0 0 0 0 0 0 0 0 0 0 0 0 0 0 0 0 0 0
0 0 0 0 0 0 0 0 0 0 0 0 0 0 0 0 0 0 1 0 0 0 0 0 0 0 0 0 0 0 0 0 0 0 0 0 0 0 0 0 0 0 0
0 0 0 0 0 0 0 0 1 1 0 0 0 0 0 0 0 0 1 1 1 1 0 0 0 0 0 0 0 0 0 0 0 0 0 0 0 0 0 0 0 0 0
0 0 0 0 0 0 0 0 1 1 1 1 0 0 0 0 0 0 0 0 1 1 0 0 0 0 0 0 0 0 0 0 0 0 0 0 0 0 0 0 0 0 0
0 0 0 0 0 0 0 1 1 1 1 1 1 0 0 0 0 0 0 0 0 1 1 0 0 0 0 0 0 0 0 0 0 0 0 0 0 0 0 0 0 0 0
0 0 0 0 0 0 0 1 1 1 1 1 1 1 0 0 0 0 0 0 0 0 0 0 0 0 0 0 0 0 0 0 0 0 0 0 0 0 0 0 0 0 0
1 1 1 1 1 1 1 1 1 1 1 1 1 1 1 0 0 0 0 0 0 0 0 0 0 0 0 0 0 0 0 0 0 0 0 0 0 0 0 0 0 0 0
1 1 1 1 1 1 1 1 1 1 1 1 0 0 0 0 0 0 0 0 0 0 0 0 0 0 0 0 0 0 0 0 0 0 0 0 0 0 0 0 0 0 0
1 1 1 1 1 1 1 1 1 1 0 0 0 0 0 0 0 0 0 0 0 0 0 0 0 0 0 0 0 0 0 0 0 0 0 0 0 0 0 0 0 0 0
1 1 1 1 1 1 1 1 1 0 0 0 0 0 0 0 0 0 0 0 0 0 0 0 0 0 0 0 0 0 0 0 0 0 0 0 0 0 0 0 0 0 0
1 1 1 1 1 1 1 1 0 0 0 0 0 0 0 0 0 0 0 0 0 0 0 0 0 0 0 0 0 0 0 0 0 0 0 0 0 0 0 0 0 0 0
1 1 1 1 1 1 1 1 0 0 0 0 0 0 0 0 0 0 0 0 0 0 0 0 0 0 0 0 0 0 0 0 0 0 0 0 0 0 0 0 0 0 0
1 1 1 1 1 1 1 0 0 0 0 0 0 0 0 0 0 0 0 0 0 0 0 0 0 0 0 0 0 0 0 0 0 0 0 0 0 0 0 0 0 0 0
1 1 1 1 1 1 0 0 0 0 0 0 0 0 0 0 0 0 0 0 0 0 0 0 0 0 0 0 0 0 0 0 0 0 0 0 0 0 0 0 0 0 0
1 1 1 1 0 0 0 0 0 0 0 0 0 0 0 0 0 0 0 0 0 0 0 0 0 0 0 0 0 0 0 0 0 0 0 0 0 0 0 0 0 0 0
1 1 0 0 0 0 0 0 0 0 0 0 0 0 0 0 0 0 0 0 0 0 0 0 0 0 0 0 0 0 0 0 0 0 0 0 0 0 0 0 0 0 0
0 0 0 0 0 0 0 0 0 0 0 0 0 0 0 0 0 0 0 0 0 0 0 0 0 0 0 0 0 0 0 0 0 0 0 0 0 0 0 0 0 0 0
1 0 0 0 0 0 0 0 0 0 0 0 0 0 0 0 0 0 0 0 0 0 0 0 0 0 0 0 0 0 0 0 0 0 0 0 0 0 0 0 0 0 0
1 1 0 0 0 0 0 0 0 0 0 0 0 0 0 0 0 0 0 0 0 0 0 0 0 0 0 0 0 0 0 0 0 0 0 0 0 0 0 0 0 0 0
1 1 1 0 0 0 0 0 0 0 0 0 0 0 0 0 0 0 0 0 0 0 0 0 0 0 0 0 0 0 0 0 0 0 0 0 0 0 0 0 0 0 0
Wind_Speed
1 1 0 0 0 0 1 0 1 1 1 1 1 1 0 1 2 4 5 8 8 8 7 7 6 6 7 6 6 5 5 5 6 6 6 6 6 6 6 6 5 5 4
1 1 0 1 1 0 1 1 1 1 1 1 1 1 1 1 1 3 5 6 7 8 7 7 7 7 6 6 6 5 5 5 5 6 6 6 6 6 6 6 6 5 4
1 1 0 0 1 1 0 1 1 1 1 1 1 1 0 1 1 2 4 4 5 7 8 8 7 7 7 7 6 6 6 5 5 5 5 5 6 6 6 6 6 6 5
1 0 0 1 1 0 0 1 1 1 1 1 1 1 1 1 2 2 2 4 4 5 7 9 8 8 7 7 7 6 6 5 5 5 5 6 6 6 6 7 7 6 5
1 0 1 1 1 1 1 1 2 1 2 2 2 2 2 2 3 3 3 4 4 5 5 8 10 9 8 8 8 7 7 6 6 6 6 6 6 6 7 7 7 6 6
1 0 1 1 1 1 1 2 2 2 2 2 3 2 1 2 2 2 3 3 3 5 6 6 6 6 8 8 8 8 7 7 6 6 6 6 5 6 7 7 7 7 7
1 1 1 1 1 1 1 2 1 2 2 2 2 2 2 2 2 2 2 2 3 3 4 6 5 4 5 8 8 8 8 7 7 6 6 5 5 6 6 8 8 7 7
1 1 1 0 1 1 1 1 1 2 2 2 1 2 2 1 1 2 2 2 3 2 3 5 5 5 5 4 6 9 8 8 7 7 7 6 6 6 6 7 8 8 8
2 1 1 1 0 0 0 1 1 1 2 2 1 1 1 1 2 1 1 1 1 2 2 3 5 5 5 4 5 8 9 8 8 8 7 7 6 7 7 7 8 8 7
2 2 1 1 0 0 0 1 1 1 1 2 1 1 1 1 1 1 2 1 1 1 1 2 2 3 3 3 4 6 8 8 7 7 7 7 7 7 7 7 7 8 8
2 1 2 1 1 0 0 1 1 1 1 2 2 1 1 1 1 1 2 2 1 0 1 1 1 2 3 3 4 6 8 8 7 7 7 7 7 7 7 7 7 7 8
1 1 1 0 1 0 1 0 1 1 1 2 2 2 1 1 1 1 2 2 1 1 1 1 2 2 2 2 3 7 8 8 7 7 7 7 6 6 7 7 7 7 7
1 1 0 0 0 1 1 1 1 1 1 2 2 2 2 2 1 1 1 2 2 1 0 0 1 1 2 2 3 7 7 7 7 7 7 7 6 6 6 6 7 7 6
1 2 1 0 0 1 1 1 1 1 1 2 3 3 2 2 1 2 1 1 1 1 1 1 0 1 1 2 3 6 5 7 7 7 7 7 7 7 6 5 5 5 5
1 2 1 1 1 1 1 1 1 1 1 2 2 3 3 2 2 2 1 1 1 1 1 1 0 1 1 2 5 3 4 7 7 7 7 7 7 7 7 6 5 5 4
2 2 2 1 1 1 1 1 1 1 1 1 1 2 2 3 3 2 2 2 1 1 1 1 0 1 1 1 3 2 2 6 8 8 8 8 8 8 8 7 6 6 5
1 1 1 1 1 1 2 1 2 1 1 2 2 2 2 2 2 3 3 2 1 1 1 2 1 1 1 1 1 1 2 3 4 8 8 9 8 8 8 8 7 6 6
1 1 1 1 1 2 2 2 2 2 1 2 2 2 3 3 3 2 2 2 2 1 1 2 1 1 1 2 1 2 1 2 2 6 8 9 9 8 8 8 7 7 6
1 1 1 1 1 1 1 2 2 2 2 1 2 2 2 3 3 3 3 2 2 2 1 1 2 1 0 1 1 1 1 0 1 3 6 6 7 8 8 8 8 7 7
1 1 1 1 1 1 2 2 3 2 2 2 1 1 1 2 2 3 3 3 3 3 2 1 1 1 0 0 1 1 1 0 1 0 1 3 4 6 7 7 8 8 7
1 1 1 1 1 1 3 4 3 2 2 2 2 1 1 1 1 1 2 2 3 2 2 1 1 1 1 0 0 1 0 1 1 0 0 1 2 3 4 5 7 7 7
1 1 1 1 2 2 4 4 4 3 3 2 3 2 1 1 0 1 2 2 2 2 2 2 2 2 1 1 1 1 0 1 1 1 1 1 2 2 3 3 6 7 8
2 1 1 1 2 3 4 4 4 3 3 2 3 3 3 3 3 3 2 2 2 3 3 1 2 2 2 1 1 1 1 1 1 1 1 1 0 1 1 3 7 9 9
2 1 1 1 1 2 2 2 4 3 2 2 2 2 2 3 4 5 4 3 2 1 2 3 2 3 2 2 2 2 2 2 1 1 1 1 1 1 1 1 5 8 8
2 2 2 1 1 1 1 1 2 2 1 2 2 2 1 2 4 5 4 3 3 3 2 1 3 3 4 4 3 1 1 1 1 1 1 1 1 1 1 2 3 7 8
2 2 2 1 1 2 3 2 1 2 2 2 1 0 2 2 3 5 3 3 4 3 4 4 3 4 4 4 4 3 2 2 1 1 1 0 1 0 1 1 1 3 4
Wind_Direction
106 91 344 34 192 133 221 259 317 345 318 319 336 325 114 72 109 125 136 149 149 150 153 154 155 153 155 156 160 159 162 166 172 178 183 187 183 175 169 164 163 156 153
79 82 54 340 345 39 19 334 281 257 279 310 320 325 31 78 92 121 139 155 159 161 165 167 167 165 165 167 169 167 166 169 175 184 187 189 186 178 173 169 164 161 163
83 70 147 271 6 25 4 306 316 305 275 265 234 240 191 158 156 134 157 162 169 174 177 179 177 174 174 176 179 178 178 179 182 185 187 193 191 185 183 178 174 173 176
97 16 15 33 16 305 252 267 315 332 330 314 302 253 196 178 187 190 190 172 174 175 183 187 184 183 183 186 187 187 187 188 193 194 196 198 194 191 190 186 182 180 181
107 60 35 28 343 337 350 353 40 355 323 318 288 246 210 205 209 196 197 188 175 168 171 184 188 189 189 192 191 193 195 196 199 201 203 203 200 194 192 188 185 182 181
100 98 75 43 6 20 22 19 2 326 303 295 295 302 239 214 207 193 210 195 173 172 170 169 178 189 194 193 193 196 199 198 201 204 205 207 201 192 191 188 185 186 185
105 112 53 89 46 30 22 10 8 325 314 316 315 311 287 214 196 198 198 192 176 168 167 166 171 173 183 193 196 199 201 203 205 205 205 200 193 191 193 192 190 190 190
143 157 134 73 66 36 18 1 4 343 319 350 322 312 315 326 292 220 184 194 181 173 173 182 175 180 176 172 187 195 201 205 208 203 197 196 192 189 190 190 193 195 195
151 122 121 96 79 124 18 298 25 344 317 322 346 335 333 329 318 314 251 189 173 181 179 182 177 177 183 166 168 190 197 199 200 194 190 185 188 190 192 193 193 191 191
158 141 131 127 304 66 67 282 81 310 318 319 328 302 279 324 305 322 314 312 232 182 164 201 168 151 155 151 153 169 187 193 191 187 186 186 190 194 194 194 193 194 195
155 143 141 160 163 92 35 12 30 337 326 329 325 319 307 285 262 256 295 304 300 294 156 152 120 140 146 150 158 165 172 179 181 184 186 189 192 200 199 199 197 196 196
169 144 134 156 171 207 267 287 294 319 339 338 322 317 312 302 301 289 297 296 294 306 22 98 125 140 129 130 148 147 163 172 177 182 185 188 190 196 199 201 200 199 198
155 133 119 124 237 251 262 272 267 306 305 307 297 303 311 299 301 282 272 281 291 290 317 244 131 138 129 128 135 143 161 173 181 184 187 188 190 194 198 202 200 201 202
101 114 105 106 22 358 332 327 281 277 300 295 299 312 303 300 314 296 286 284 286 289 259 242 149 122 115 129 142 159 164 176 185 185 186 186 186 190 196 199 196 194 191
105 99 86 61 27 353 344 348 318 310 307 296 304 312 306 310 305 295 295 279 254 270 279 253 216 118 126 131 146 166 167 179 181 182 184 185 188 187 188 188 189 187 185
55 82 72 48 22 10 9 2 317 310 314 309 301 317 316 317 318 317 312 301 282 262 271 275 291 153 136 118 140 155 180 172 181 185 189 188 191 190 189 189 190 190 190
85 86 72 41 20 15 13 5 325 348 347 330 332 338 327 324 328 330 324 318 309 301 276 293 277 148 115 96 141 215 195 183 188 194 194 194 195 195 192 190 191 192 193
101 95 73 39 16 28 19 359 339 352 352 349 346 342 339 343 336 325 325 322 316 300 257 281 270 234 189 154 171 240 224 212 193 190 197 196 196 196 194 191 190 191 194
98 79 90 37 12 17 1 354 349 344 347 353 357 350 347 350 347 338 329 326 313 311 285 255 275 259 214 187 182 254 270 266 234 176 188 195 199 200 197 193 193 193 198
117 92 63 44 46 23 24 13 347 337 345 353 10 7 356 352 343 333 334 343 333 327 315 296 285 279 245 245 139 238 297 298 292 183 163 184 189 199 201 197 196 197 201
126 101 66 34 30 49 39 24 347 344 345 351 354 5 355 28 16 337 338 348 339 335 330 321 313 331 337 11 296 252 256 280 269 212 179 206 171 189 197 205 202 202 202
94 79 56 50 37 46 57 41 14 351 349 349 344 355 17 39 238 280 319 329 319 308 323 328 321 326 319 310 319 310 288 273 259 233 198 241 178 187 193 192 197 192 197
114 90 66 84 74 75 62 40 14 340 337 347 358 356 345 12 7 357 336 300 291 261 234 261 300 306 301 305 295 294 291 269 251 240 192 244 209 202 205 199 182 184 190
156 164 187 142 112 92 82 38 353 320 326 331 337 351 3 12 5 355 335 330 322 327 260 226 247 275 291 296 273 254 253 260 233 218 155 206 206 239 246 209 188 183 193
181 197 201 171 144 125 141 60 356 315 322 315 317 351 12 46 29 3 341 332 330 319 312 283 254 257 265 272 272 286 276 253 248 224 170 188 206 253 245 213 195 194 199
198 212 200 193 189 170 183 194 276 306 314 311 303 66 64 64 38 13 349 330 317 318 326 315 287 267 252 245 239 226 246 257 261 259 162 198 194 122 290 250 199 181 202